Location: Dammartin
(48.9032°N, 1.6195°E)
Time: 09:31:40
(UTC+00:00)

IGS 5A - Pass Details

Date: 03 February 2023
Orbit: 578 x 583 km, 97.5° (Epoch: 27 March)

Event Time Altitude Azimuth Distance (km) Brightness Sun altitude
Exits shadow 18:20:21 24° 85° (E) 1,213 4.4 -14.4°
Maximum altitude 18:21:08 26° 66° (ENE) 1,163 4.4 -14.5°
Drops below altitude 10° 18:24:35 10° 9° (N) 1,909 5.9 -15.1°
Sets 18:27:00 0° 357° (N) 2,813 6.9 -15.5°
